Clinton, OK

8:00 AM CST on December 04, 2016 (GMT -0600)
Clinton Municipal

Weather History for KCLK - October, 2012

Change the Weather History Date:

Wednesday, October 24, 2012

  Actual Average (KCSM) Record (KCSM)
Temperature  
Mean Temperature 71 °F -  
Max Temperature 80 °F 67 °F 86 °F (2014)
Min Temperature 62 °F 46 °F 28 °F (2005)
Cooling Degree Days 6    
Growing Degree Days 21 (Base 50)    
Moisture  
Dew Point 61 °F    
Average Humidity 73    
Maximum Humidity 94    
Minimum Humidity 51    
Precipitation  
Precipitation 0.00 in - - ()
Sea Level Pressure  
Sea Level Pressure 29.79 in    
Wind  
Wind Speed 16 mph (SSE)    
Max Wind Speed 28 mph    
Max Gust Speed 38 mph    
Visibility 9 miles    
Events      
Averages and records for this station are not official NWS values.
T = Trace of Precipitation, MM = Missing Value Source: NWS Daily Summary

Daily Weather History Graph

Daily Weather History Graph

Search for Another Location

Airport or City:

Trip Planner

Search our weather history database for the weather conditions in past years. The results will help you decide how hot, cold, wet, or windy it might be!

Date:

Astronomy

Oct. 24, 2012 Rise Set
Actual Time 7:50 AM CDT 6:48 PM CDT
Civil Twilight 7:24 AM CDT 7:14 PM CDT
Nautical Twilight 6:54 AM CDT 7:44 PM CDT
Astronomical Twilight 6:25 AM CDT 8:13 PM CDT
Moon 3:56 PM CDT (10/24) 2:57 AM CDT (10/24)
Length of Visible Light 11h 50m
Length of Day
10h 58m
Waxing Gibbous, 76% of the Moon is Illuminated
Oct 24
Waxing Gibbous
Oct 29
Full
Nov 6
Last Quarter
Nov 13
New
Nov 20
First Quarter

Hourly Weather History & Observations

Time (CDT) Temp. Heat Index Dew Point Humidity Pressure Visibility Wind Dir Wind Speed Gust Speed Precip Events Conditions
12:15 AM 71.6 °F - 60.8 °F 69% 29.83 in 10.0 mi South 15.0 mph - N/A   Clear
12:35 AM 71.6 °F - 60.8 °F 69% 29.84 in 10.0 mi South 11.5 mph - N/A   Clear
12:55 AM 69.8 °F - 60.8 °F 73% 29.84 in 10.0 mi South 11.5 mph 18.4 mph N/A   Clear
1:15 AM 69.8 °F - 60.8 °F 73% 29.84 in 10.0 mi South 16.1 mph - N/A   Clear
1:35 AM 69.8 °F - 60.8 °F 73% 29.84 in 10.0 mi South 12.7 mph - N/A   Clear
1:55 AM 68.0 °F - 60.8 °F 78% 29.84 in 10.0 mi South 12.7 mph - N/A   Clear
2:15 AM 68.0 °F - 60.8 °F 78% 29.84 in 10.0 mi South 11.5 mph - N/A   Clear
2:35 AM 68.0 °F - 60.8 °F 78% 29.84 in 10.0 mi SSE 12.7 mph - N/A   Clear
2:55 AM 68.0 °F - 60.8 °F 78% 29.83 in 10.0 mi SSE 11.5 mph - N/A   Clear
3:15 AM 66.2 °F - 60.8 °F 83% 29.83 in 10.0 mi SSE 11.5 mph - N/A   Clear
3:35 AM 66.2 °F - 60.8 °F 83% 29.83 in 10.0 mi SSE 12.7 mph - N/A   Clear
3:55 AM 64.4 °F - 60.8 °F 88% 29.83 in 10.0 mi SSE 11.5 mph - N/A   Clear
4:15 AM 64.4 °F - 60.8 °F 88% 29.83 in 10.0 mi SSE 11.5 mph - N/A   Clear
4:35 AM 64.4 °F - 60.8 °F 88% 29.83 in 10.0 mi SSE 10.4 mph - N/A   Clear
4:55 AM 64.4 °F - 60.8 °F 88% 29.83 in 10.0 mi SSE 10.4 mph - N/A   Clear
5:15 AM 64.4 °F - 60.8 °F 88% 29.84 in 10.0 mi SSE 10.4 mph - N/A   Clear
5:35 AM 64.4 °F - 60.8 °F 88% 29.83 in 7.0 mi SSE 10.4 mph - N/A   Clear
5:55 AM 62.6 °F - 60.8 °F 94% 29.84 in 7.0 mi SSE 10.4 mph - N/A   Clear
6:15 AM 64.4 °F - 60.8 °F 88% 29.84 in 7.0 mi South 11.5 mph - N/A   Clear
6:35 AM 62.6 °F - 60.8 °F 94% 29.85 in 7.0 mi South 11.5 mph - N/A   Clear
6:55 AM 62.6 °F - 60.8 °F 94% 29.85 in 7.0 mi South 11.5 mph - N/A   Clear
7:15 AM 62.6 °F - 60.8 °F 94% 29.85 in 7.0 mi South 11.5 mph - N/A   Clear
7:35 AM 62.6 °F - 60.8 °F 94% 29.85 in 7.0 mi SSE 11.5 mph - N/A   Clear
7:55 AM 64.4 °F - 60.8 °F 88% 29.84 in 5.0 mi SSE 13.8 mph - N/A   Clear
8:15 AM 64.4 °F - 60.8 °F 88% 29.84 in 4.0 mi SSE 15.0 mph - N/A   Scattered Clouds
8:55 AM 64.4 °F - 62.6 °F 94% 29.84 in 3.0 mi South 19.6 mph - N/A   Overcast
9:15 AM 66.2 °F - 62.6 °F 88% 29.84 in 4.0 mi South 18.4 mph 25.3 mph N/A   Overcast
9:35 AM 66.2 °F - 62.6 °F 88% 29.85 in 5.0 mi South 19.6 mph - N/A   Overcast
9:55 AM 68.0 °F - 62.6 °F 83% 29.85 in 7.0 mi South 20.7 mph - N/A   Overcast
10:15 AM 68.0 °F - 62.6 °F 83% 29.85 in 7.0 mi South 18.4 mph 25.3 mph N/A   Overcast
10:35 AM 68.0 °F - 62.6 °F 83% 29.85 in 10.0 mi South 20.7 mph 26.5 mph N/A   Overcast
11:15 AM 71.6 °F - 62.6 °F 73% 29.84 in 10.0 mi South 27.6 mph 31.1 mph N/A   Mostly Cloudy
11:35 AM 71.6 °F - 62.6 °F 73% 29.84 in 10.0 mi South 23.0 mph 33.4 mph N/A   Mostly Cloudy
11:55 AM 71.6 °F - 62.6 °F 73% 29.84 in 10.0 mi South 23.0 mph 31.1 mph N/A   Mostly Cloudy
12:15 PM 73.4 °F - 62.6 °F 69% 29.83 in 10.0 mi South 25.3 mph 31.1 mph N/A   Mostly Cloudy
12:35 PM 73.4 °F - 62.6 °F 69% 29.83 in 10.0 mi South 24.2 mph 32.2 mph N/A   Scattered Clouds
12:55 PM 73.4 °F - 62.6 °F 69% 29.82 in 10.0 mi South 25.3 mph 34.5 mph N/A   Scattered Clouds
1:35 PM 78.8 °F - 62.6 °F 57% 29.81 in 10.0 mi South 26.5 mph 32.2 mph N/A   Scattered Clouds
1:55 PM 77.0 °F - 60.8 °F 57% 29.80 in 10.0 mi South 23.0 mph 28.8 mph N/A   Scattered Clouds
2:15 PM 78.8 °F - 60.8 °F 54% 29.79 in 10.0 mi South 24.2 mph 32.2 mph N/A   Scattered Clouds
2:35 PM 78.8 °F - 60.8 °F 54% 29.78 in 10.0 mi South 24.2 mph 28.8 mph N/A   Scattered Clouds
2:55 PM 78.8 °F - 60.8 °F 54% 29.78 in 10.0 mi South 25.3 mph 28.8 mph N/A   Scattered Clouds
3:15 PM 80.6 °F 81.5 °F 60.8 °F 51% 29.77 in 10.0 mi South 20.7 mph 29.9 mph N/A   Scattered Clouds
3:35 PM 78.8 °F - 60.8 °F 54% 29.76 in 10.0 mi South 24.2 mph 27.6 mph N/A   Scattered Clouds
3:55 PM 78.8 °F - 60.8 °F 54% 29.75 in 10.0 mi South 23.0 mph 28.8 mph N/A   Scattered Clouds
4:15 PM 78.8 °F - 60.8 °F 54% 29.74 in 10.0 mi SSE 21.9 mph 28.8 mph N/A   Scattered Clouds
4:55 PM 80.6 °F 81.5 °F 60.8 °F 51% 29.73 in 10.0 mi SSE 24.2 mph 32.2 mph N/A   Scattered Clouds
5:35 PM 78.8 °F - 60.8 °F 54% 29.72 in 10.0 mi South 24.2 mph 32.2 mph N/A   Scattered Clouds
5:55 PM 77.0 °F - 60.8 °F 57% 29.71 in 10.0 mi SSE 20.7 mph 25.3 mph N/A   Scattered Clouds
6:15 PM 77.0 °F - 62.6 °F 61% 29.72 in 10.0 mi SSE 16.1 mph 20.7 mph N/A   Mostly Cloudy
6:35 PM 77.0 °F - 62.6 °F 61% 29.72 in 10.0 mi SSE 16.1 mph 27.6 mph N/A   Scattered Clouds
6:55 PM 75.2 °F - 62.6 °F 65% 29.71 in 10.0 mi SSE 16.1 mph - N/A   Scattered Clouds
7:35 PM 73.4 °F - 62.6 °F 69% 29.72 in 10.0 mi SSE 16.1 mph 23.0 mph N/A   Clear
8:15 PM 73.4 °F - 60.8 °F 65% 29.70 in 10.0 mi SSE 18.4 mph 24.2 mph N/A   Clear
8:35 PM 73.4 °F - 60.8 °F 65% 29.70 in 10.0 mi SSE 20.7 mph 28.8 mph N/A   Clear
8:55 PM 73.4 °F - 60.8 °F 65% 29.71 in 10.0 mi SSE 18.4 mph 27.6 mph N/A   Clear
9:15 PM 73.4 °F - 60.8 °F 65% 29.71 in 10.0 mi South 20.7 mph 29.9 mph N/A   Clear
9:35 PM 73.4 °F - 60.8 °F 65% 29.70 in 10.0 mi South 26.5 mph 38.0 mph N/A   Clear
10:15 PM 73.4 °F - 59.0 °F 61% 29.70 in 10.0 mi South 25.3 mph 29.9 mph N/A   Clear
10:35 PM 71.6 °F - 59.0 °F 64% 29.70 in 10.0 mi South 25.3 mph 33.4 mph N/A   Clear
10:55 PM 71.6 °F - 59.0 °F 64% 29.70 in 10.0 mi South 23.0 mph 31.1 mph N/A   Clear
11:15 PM 71.6 °F - 57.2 °F 60% 29.70 in 10.0 mi South 23.0 mph 27.6 mph N/A   Clear
11:35 PM 69.8 °F - 57.2 °F 64% 29.70 in 10.0 mi South 20.7 mph 28.8 mph N/A   Clear
11:55 PM 69.8 °F - 57.2 °F 64% 29.70 in 10.0 mi South 20.7 mph 26.5 mph N/A   Clear